軌道要素
Epoch 2023 Feb. 25.0 TT = JDT 2460000.5
T 2023 Jan. 7.08524 TT Rudenko
q 1.7568346 (2000.0) P Q
n 0.06215274 Peri. 48.63314 +0.93980449 -0.33205973
a 6.3119355 Node 330.49406 +0.24365723 +0.81666298
e 0.7216647 Incl. 9.42431 +0.23958020 +0.47201474
P 15.9
>From 95 observations 2022 June 9-2023 Feb. 9, mean residual 0".7.
|